Weather History for Wellsville, NY

Change the Weather History Date:

Thursday, August 29, 2013

  Actual Average (KBFD) Record (KBFD)
Temperature  
Mean Temperature 71 °F 62 °F  
Max Temperature 80 °F 74 °F 89 °F (1991)
Min Temperature 62 °F 50 °F 25 °F (1986)
Degree Days  
Heating Degree Days 0 1  
Month to date heating degree days 21  
Since 1 June heating degree days 230  
Since 1 July heating degree days 85  
Cooling Degree Days 6 1  
Month to date cooling degree days 50  
Year to date cooling degree days 174  
Since 1 June cooling degree days 164  
Growing Degree Days 21 (Base 50)    
Moisture  
Dew Point 63 °F    
Average Humidity 87    
Maximum Humidity 100    
Minimum Humidity 54    
Precipitation  
Precipitation 0.01 in 0.12 in 1.51 in (2006)
Month to date precipitation 3.86  
Year to date precipitation 29.70  
Sea Level Pressure  
Sea Level Pressure 30.06 in    
Wind  
Wind Speed 3 mph (North)    
Max Wind Speed 9 mph    
Max Gust Speed -    
Visibility 4 miles    
Events Fog    
T = Trace of Precipitation, MM = Missing Value Source: NWS Daily Summary

Daily Weather History Graph

Daily Weather History Graph

Search for Another Location

Airport:

Trip Planner

Search our weather history database for the weather conditions in past years. The results will help you decide how hot, cold, wet, or windy it might be!

Date:

Astronomy

Aug. 29, 2013 Rise Set
Actual Time 6:34 AM EDT 7:50 PM EDT
Civil Twilight 6:05 AM EDT 8:19 PM EDT
Nautical Twilight 5:30 AM EDT 8:53 PM EDT
Astronomical Twilight 4:54 AM EDT 9:30 PM EDT
Moon 12:21 AM EDT (8/29) 3:20 PM EDT (8/29)
Length of Visible Light 14h 13m
Length of Day
13h 15m
Last Quarter, 38% of the Moon is Illuminated
Aug 29
Last Quarter
Sep 5
New
Sep 12
First Quarter
Sep 19
Full
Sep 26
Last Quarter

Hourly Weather History & Observations

Time (EDT) Temp. Heat Index Dew Point Humidity Pressure Visibility Wind Dir Wind Speed Gust Speed Precip Events Conditions
12:40 AM 66.2 °F - 64.4 °F 94% 30.03 in 5.0 mi Calm Calm - N/A   Partly Cloudy
12:52 AM 66.2 °F - 64.4 °F 94% 30.03 in 1.8 mi NNE 4.6 mph - N/A   Scattered Clouds
12:56 AM 66.0 °F - 64.9 °F 96% 30.00 in 0.8 mi North 4.6 mph - N/A   Mist
1:04 AM 66.2 °F - 64.4 °F 94% 30.03 in 1.2 mi North 4.6 mph - N/A   Scattered Clouds
1:07 AM 66.2 °F - 64.4 °F 94% 30.03 in 3.0 mi North 5.8 mph - N/A   Scattered Clouds
1:32 AM 66.2 °F - 64.4 °F 94% 30.03 in 2.5 mi North 4.6 mph - N/A   Partly Cloudy
1:38 AM 64.4 °F - 64.4 °F 100% 30.03 in 1.0 mi North 5.8 mph - N/A   Mist
1:41 AM 64.4 °F - 64.4 °F 100% 30.03 in 0.2 mi North 4.6 mph - N/A Fog Fog
1:56 AM 64.9 °F - 64.0 °F 97% 30.01 in 0.2 mi Calm Calm - N/A Fog Fog
2:13 AM 64.4 °F - 64.4 °F 100% 30.03 in 1.0 mi NNE 4.6 mph - N/A   Mist
2:22 AM 64.4 °F - 64.4 °F 100% 30.04 in 0.2 mi North 5.8 mph - N/A Fog Fog
2:33 AM 64.4 °F - 64.4 °F 100% 30.03 in 0.5 mi NNE 4.6 mph - N/A Fog Fog
2:56 AM 64.0 °F - 64.0 °F 100% 30.01 in 0.2 mi North 4.6 mph - N/A Fog Fog
3:27 AM 64.4 °F - 62.6 °F 94% 30.03 in 0.5 mi NNE 3.5 mph - N/A Fog Fog
3:34 AM 64.4 °F - 62.6 °F 94% 30.03 in 0.2 mi Calm Calm - N/A Fog Fog
3:56 AM 64.0 °F - 63.0 °F 96% 30.01 in 0.2 mi Calm Calm - 0.01 in Fog Fog
4:56 AM 64.0 °F - 63.0 °F 96% 30.01 in 0.2 mi Calm Calm - N/A Fog Fog
5:56 AM 64.0 °F - 63.0 °F 96% 30.04 in 0.2 mi NNW 3.5 mph - N/A Fog Fog
6:13 AM 62.6 °F - 62.6 °F 100% 30.06 in 0.5 mi Calm Calm - N/A Fog Fog
6:44 AM 64.4 °F - 62.6 °F 94% 30.08 in 0.2 mi Calm Calm - N/A Fog Fog
6:56 AM 64.0 °F - 63.0 °F 96% 30.05 in 0.2 mi Calm Calm - N/A Fog Fog
7:56 AM 64.0 °F - 63.0 °F 96% 30.08 in 0.2 mi Calm Calm - N/A Fog Fog
8:56 AM 64.0 °F - 63.0 °F 96% 30.09 in 0.2 mi Calm Calm - N/A Fog Fog
9:14 AM 64.4 °F - 64.4 °F 100% 30.11 in 0.5 mi Calm Calm - N/A Fog Fog
9:25 AM 64.4 °F - 64.4 °F 100% 30.12 in 1.2 mi Calm Calm - N/A   Overcast
9:40 AM 64.4 °F - 62.6 °F 94% 30.12 in 3.0 mi Calm Calm - N/A   Overcast
9:56 AM 64.0 °F - 63.0 °F 96% 30.10 in 6.0 mi Calm Calm - N/A   Mostly Cloudy
10:09 AM 66.2 °F - 64.4 °F 94% 30.12 in 9.0 mi North 3.5 mph - N/A   Mostly Cloudy
10:21 AM 66.2 °F - 64.4 °F 94% 30.13 in 10.0 mi North 3.5 mph - N/A   Scattered Clouds
10:56 AM 71.1 °F - 64.0 °F 78% 30.09 in 10.0 mi Variable 4.6 mph - N/A   Clear
11:56 AM 75.0 °F - 64.9 °F 71% 30.09 in 10.0 mi Variable 4.6 mph - N/A   Clear
12:56 PM 77.0 °F - 64.9 °F 66% 30.08 in 10.0 mi NNW 6.9 mph - N/A   Clear
1:56 PM 77.0 °F - 64.0 °F 64% 30.09 in 10.0 mi North 3.5 mph - N/A   Mostly Cloudy
2:56 PM 77.0 °F - 62.1 °F 60% 30.07 in 10.0 mi North 5.8 mph - N/A   Partly Cloudy
3:56 PM 80.1 °F 81.7 °F 64.0 °F 58% 30.06 in 10.0 mi NNW 8.1 mph - N/A   Scattered Clouds
4:56 PM 79.0 °F - 61.0 °F 54% 30.07 in 10.0 mi NNW 9.2 mph - N/A   Clear
5:56 PM 78.1 °F - 60.1 °F 54% 30.07 in 10.0 mi Variable 4.6 mph - N/A   Clear
6:56 PM 75.9 °F - 57.9 °F 54% 30.07 in 10.0 mi Calm Calm - N/A   Clear
7:56 PM 73.0 °F - 57.9 °F 59% 30.07 in 10.0 mi Calm Calm - N/A   Clear
8:56 PM 69.1 °F - 60.1 °F 73% 30.08 in 10.0 mi East 3.5 mph - N/A   Clear
9:56 PM 68.0 °F - 61.0 °F 78% 30.10 in 10.0 mi Calm Calm - N/A   Clear
10:56 PM 66.0 °F - 61.0 °F 84% 30.09 in 10.0 mi Calm Calm - N/A   Clear
11:56 PM 63.0 °F - 61.0 °F 93% 30.08 in 10.0 mi Calm Calm - N/A   Clear